| time (UTC) | temp F | wind direction | speed knots | gust knots | rain 1hr in | rain 24hr in | rain mn in | humidity % | barometer mb |
| 20260506154845 | 60 | 179 | 10.4 | 14.8 | 0.00 | 0.00 | 0.02 | 65 | 1028.8 |
| 20260506154345 | 60 | 157 | 6.1 | 8.7 | 0.00 | 0.00 | 0.02 | 66 | 1028.8 |
| 20260506153846 | 60 | 151 | 5.2 | 8.7 | 0.00 | 0.00 | 0.02 | 65 | 1028.8 |
| 20260506153346 | 60 | 175 | 4.3 | 7.0 | 0.00 | 0.00 | 0.02 | 65 | 1028.8 |
| 20260506152846 | 60 | 182 | 6.1 | 8.7 | 0.00 | 0.00 | 0.02 | 64 | 1028.8 |
| 20260506152346 | 60 | 160 | 7.8 | 7.8 | 0.00 | 0.00 | 0.02 | 65 | 1028.4 |
| 20260506151845 | 59 | 166 | 5.2 | 7.8 | 0.00 | 0.00 | 0.02 | 65 | 1028.8 |
| 20260506151346 | 59 | 143 | 6.1 | 9.6 | 0.00 | 0.00 | 0.02 | 62 | 1028.8 |
| 20260506150846 | 59 | 149 | 7.0 | 8.7 | 0.00 | 0.00 | 0.02 | 64 | 1028.4 |
| 20260506150346 | 59 | 163 | 7.8 | 9.6 | 0.00 | 0.00 | 0.02 | 62 | 1028.4 |
| 20260506145849 | 59 | 148 | 9.6 | 13.0 | 0.00 | 0.00 | 0.02 | 63 | 1028.4 |
| 20260506145346 | 59 | 147 | 9.6 | 13.0 | 0.00 | 0.00 | 0.02 | 65 | 1028.4 |
| 20260506144845 | 59 | 164 | 10.4 | 13.0 | 0.00 | 0.00 | 0.02 | 65 | 1028.4 |
| 20260506144347 | 59 | 161 | 7.8 | 13.0 | 0.00 | 0.00 | 0.02 | 66 | 1028.4 |
| 20260506143848 | 59 | 159 | 9.6 | 13.0 | 0.00 | 0.00 | 0.02 | 68 | 1028.4 |
| 20260506143346 | 59 | 159 | 7.0 | 12.2 | 0.00 | 0.00 | 0.02 | 69 | 1028.4 |
| 20260506142846 | 59 | 178 | 7.0 | 9.6 | 0.00 | 0.00 | 0.02 | 66 | 1028.4 |
| 20260506142350 | 59 | 180 | 7.8 | 11.3 | 0.00 | 0.00 | 0.02 | 66 | 1028.4 |
| 20260506141845 | 59 | 167 | 7.8 | 11.3 | 0.00 | 0.00 | 0.02 | 65 | 1028.4 |
| 20260506141345 | 60 | 135 | 7.8 | 13.0 | 0.00 | 0.00 | 0.02 | 66 | 1028.4 |
| 20260506140846 | 60 | 178 | 7.8 | 13.9 | 0.00 | 0.00 | 0.02 | 65 | 1028.4 |
| 20260506140346 | 60 | 173 | 7.0 | 12.2 | 0.00 | 0.00 | 0.02 | 66 | 1028.4 |
| 20260506135846 | 60 | 151 | 8.7 | 11.3 | 0.00 | 0.00 | 0.02 | 68 | 1028.4 |
| 20260506135345 | 60 | 146 | 7.0 | 12.2 | 0.00 | 0.00 | 0.02 | 67 | 1028.1 |
| 20260506134847 | 60 | 166 | 8.7 | 12.2 | 0.00 | 0.00 | 0.02 | 68 | 1028.4 |
| 20260506134345 | 60 | 154 | 7.8 | 12.2 | 0.00 | 0.00 | 0.02 | 67 | 1028.4 |
| 20260506133845 | 60 | 160 | 9.6 | 13.9 | 0.00 | 0.00 | 0.02 | 67 | 1028.1 |
| 20260506133351 | 60 | 187 | 7.8 | 12.2 | 0.00 | 0.00 | 0.02 | 70 | 1028.4 |
| 20260506132845 | 60 | 155 | 7.0 | 7.8 | 0.00 | 0.00 | 0.02 | 69 | 1028.4 |
| 20260506132347 | 60 | 184 | 7.8 | 9.6 | 0.00 | 0.00 | 0.02 | 67 | 1028.4 |
| 20260506131851 | 60 | 161 | 8.7 | 9.6 | 0.00 | 0.00 | 0.02 | 65 | 1028.4 |
| 20260506131345 | 61 | 147 | 6.1 | 9.6 | 0.00 | 0.00 | 0.02 | 64 | 1028.4 |
| 20260506130847 | 61 | 186 | 7.8 | 9.6 | 0.00 | 0.00 | 0.02 | 64 | 1028.4 |
| 20260506130346 | 61 | 204 | 8.7 | 13.9 | 0.00 | 0.00 | 0.02 | 64 | 1028.4 |
| 20260506125846 | 61 | 168 | 10.4 | 12.2 | 0.00 | 0.00 | 0.02 | 66 | 1028.1 |
| 20260506125345 | 61 | 146 | 7.8 | 12.2 | 0.00 | 0.00 | 0.02 | 69 | 1028.1 |
| 20260506124846 | 62 | 160 | 9.6 | 13.0 | 0.00 | 0.00 | 0.02 | 69 | 1028.1 |
| 20260506124345 | 62 | 186 | 8.7 | 12.2 | 0.00 | 0.00 | 0.02 | 69 | 1028.1 |
| 20260506123845 | 62 | 170 | 9.6 | 13.9 | 0.00 | 0.00 | 0.02 | 68 | 1028.1 |
| 20260506123346 | 62 | 163 | 7.8 | 13.0 | 0.00 | 0.00 | 0.02 | 67 | 1028.1 |
| 20260506122845 | 62 | 149 | 7.0 | 12.2 | 0.00 | 0.00 | 0.02 | 68 | 1028.1 |
| 20260506122345 | 62 | 121 | 7.0 | 9.6 | 0.00 | 0.00 | 0.02 | 69 | 1028.1 |
| 20260506121845 | 62 | 160 | 7.0 | 12.2 | 0.00 | 0.00 | 0.02 | 69 | 1027.8 |
| 20260506121346 | 62 | 154 | 7.8 | 13.9 | 0.00 | 0.00 | 0.02 | 71 | 1027.8 |
| 20260506120846 | 62 | 153 | 7.8 | 12.2 | 0.00 | 0.00 | 0.02 | 73 | 1027.8 |
| 20260506120346 | 62 | 156 | 7.8 | 12.2 | 0.00 | 0.00 | 0.02 | 74 | 1027.8 |
| 20260506115845 | 61 | 175 | 7.8 | 9.6 | 0.00 | 0.00 | 0.02 | 77 | 1027.8 |
| 20260506115346 | 61 | 151 | 7.0 | 13.9 | 0.00 | 0.00 | 0.02 | 80 | 1027.4 |
| 20260506114845 | 61 | 132 | 5.2 | 7.0 | 0.00 | 0.00 | 0.02 | 82 | 1027.8 |
| 20260506114345 | 61 | 161 | 4.3 | 8.7 | 0.00 | 0.00 | 0.02 | 81 | 1027.8 |
| 20260506113846 | 61 | 138 | 7.0 | 8.7 | 0.00 | 0.00 | 0.02 | 80 | 1027.8 |
| 20260506113346 | 61 | 151 | 9.6 | 13.0 | 0.00 | 0.00 | 0.02 | 80 | 1027.4 |
| 20260506112846 | 61 | 140 | 7.8 | 8.7 | 0.00 | 0.00 | 0.02 | 81 | 1027.4 |
| 20260506112346 | 61 | 181 | 8.7 | 13.9 | 0.00 | 0.00 | 0.02 | 81 | 1027.4 |
| 20260506111845 | 61 | 126 | 8.7 | 13.0 | 0.00 | 0.00 | 0.02 | 82 | 1027.4 |
| 20260506111346 | 61 | 162 | 6.1 | 12.2 | 0.00 | 0.00 | 0.02 | 82 | 1027.4 |
| 20260506110845 | 60 | 156 | 7.8 | 12.2 | 0.00 | 0.00 | 0.02 | 83 | 1027.4 |
| 20260506110345 | 61 | 166 | 10.4 | 13.0 | 0.00 | 0.00 | 0.02 | 82 | 1027.4 |
| 20260506105845 | 61 | 176 | 6.1 | 12.2 | 0.00 | 0.00 | 0.02 | 81 | 1027.1 |
| 20260506105345 | 61 | 126 | 8.7 | 11.3 | 0.00 | 0.00 | 0.02 | 82 | 1027.1 |
| 20260506104845 | 61 | 159 | 7.8 | 11.3 | 0.00 | 0.00 | 0.02 | 82 | 1027.1 |
| 20260506104345 | 61 | 153 | 6.1 | 8.7 | 0.00 | 0.00 | 0.02 | 82 | 1027.1 |
| 20260506103845 | 61 | 179 | 7.0 | 9.6 | 0.00 | 0.00 | 0.02 | 79 | 1027.1 |
| 20260506103345 | 61 | 154 | 6.1 | 9.6 | 0.00 | 0.00 | 0.02 | 82 | 1027.1 |
| 20260506102845 | 60 | 122 | 6.1 | 8.7 | 0.00 | 0.00 | 0.02 | 84 | 1027.1 |
| 20260506102346 | 60 | 161 | 2.6 | 4.3 | 0.00 | 0.00 | 0.02 | 83 | 1026.8 |
| 20260506101846 | 60 | 191 | 3.5 | 4.3 | 0.00 | 0.00 | 0.02 | 82 | 1026.8 |
| 20260506101345 | 60 | 189 | 2.6 | 4.3 | 0.00 | 0.00 | 0.02 | 81 | 1026.8 |
| 20260506100845 | 60 | 188 | 4.3 | 5.2 | 0.00 | 0.00 | 0.02 | 81 | 1026.8 |
| 20260506100347 | 60 | 170 | 2.6 | 4.3 | 0.00 | 0.00 | 0.02 | 81 | 1026.8 |
| 20260506095845 | 60 | 175 | 2.6 | 5.2 | 0.00 | 0.00 | 0.02 | 81 | 1026.8 |
| 20260506095346 | 60 | 166 | 2.6 | 5.2 | 0.00 | 0.00 | 0.02 | 81 | 1026.4 |
| 20260506094846 | 60 | 176 | 4.3 | 7.0 | 0.00 | 0.00 | 0.02 | 80 | 1026.8 |
| 20260506094346 | 60 | 174 | 5.2 | 7.8 | 0.00 | 0.00 | 0.02 | 80 | 1026.8 |
| 20260506093845 | 60 | 173 | 6.1 | 7.8 | 0.00 | 0.00 | 0.02 | 81 | 1026.8 |
| 20260506093345 | 60 | 177 | 7.0 | 9.6 | 0.00 | 0.00 | 0.02 | 79 | 1026.8 |
| 20260506092845 | 60 | 172 | 3.5 | 6.1 | 0.00 | 0.00 | 0.02 | 81 | 1026.4 |
| 20260506092345 | 60 | 185 | 4.3 | 5.2 | 0.00 | 0.00 | 0.02 | 82 | 1026.4 |
| 20260506091849 | 60 | 165 | 4.3 | 5.2 | 0.00 | 0.00 | 0.02 | 82 | 1026.1 |
| 20260506091345 | 60 | 186 | 1.7 | 5.2 | 0.00 | 0.00 | 0.02 | 82 | 1026.1 |
| 20260506090845 | 60 | 177 | 3.5 | 5.2 | 0.00 | 0.00 | 0.02 | 82 | 1026.4 |
| 20260506090346 | 60 | 186 | 2.6 | 4.3 | 0.00 | 0.00 | 0.02 | 82 | 1026.1 |
| 20260506085845 | 60 | 183 | 2.6 | 6.1 | 0.00 | 0.00 | 0.02 | 82 | 1026.1 |
| 20260506085346 | 60 | 185 | 3.5 | 6.1 | 0.00 | 0.00 | 0.02 | 81 | 1026.1 |
| 20260506084845 | 61 | 173 | 3.5 | 5.2 | 0.00 | 0.00 | 0.02 | 81 | 1026.1 |
| 20260506084345 | 60 | 168 | 4.3 | 6.1 | 0.00 | 0.00 | 0.02 | 82 | 1025.7 |
| 20260506083846 | 60 | 172 | 5.2 | 6.1 | 0.00 | 0.00 | 0.02 | 83 | 1025.7 |
| 20260506083345 | 61 | 176 | 2.6 | 7.0 | 0.00 | 0.00 | 0.02 | 81 | 1025.7 |
| 20260506082845 | 61 | 183 | 4.3 | 7.8 | 0.00 | 0.00 | 0.02 | 81 | 1025.7 |
| 20260506082345 | 61 | 198 | 5.2 | 7.8 | 0.00 | 0.00 | 0.02 | 81 | 1025.7 |
| 20260506081845 | 61 | 201 | 4.3 | 6.1 | 0.00 | 0.00 | 0.02 | 81 | 1025.7 |
| 20260506081345 | 61 | 182 | 4.3 | 7.0 | 0.00 | 0.00 | 0.02 | 80 | 1025.7 |
| 20260506080845 | 61 | 230 | 4.3 | 7.0 | 0.00 | 0.00 | 0.02 | 80 | 1025.4 |
| 20260506080345 | 61 | 190 | 5.2 | 8.7 | 0.00 | 0.00 | 0.02 | 81 | 1025.4 |
| 20260506073346 | 63 | 171 | 5.2 | 8.7 | 0.00 | 0.00 | 0.02 | 75 | 1025.1 |
| 20260506072847 | 63 | 162 | 6.1 | 8.7 | 0.00 | 0.00 | 0.02 | 74 | 1025.1 |
| 20260506072346 | 63 | 166 | 9.6 | 12.2 | 0.00 | 0.00 | 0.02 | 71 | 1025.1 |
| 20260506071845 | 63 | 176 | 8.7 | 12.2 | 0.00 | 0.00 | 0.02 | 76 | 1025.1 |
| 20260506071345 | 64 | 246 | 7.8 | 8.7 | 0.00 | 0.00 | 0.02 | 71 | 1025.1 |
| 20260506070845 | 64 | 159 | 6.1 | 9.6 | 0.00 | 0.00 | 0.02 | 70 | 1025.1 |
| 20260506070345 | 64 | 201 | 6.1 | 11.3 | 0.00 | 0.00 | 0.02 | 71 | 1025.1 |
| 20260506062345 | 66 | 163 | 7.0 | 11.3 | 0.00 | 0.00 | 0.02 | 70 | 1024.7 |
| 20260506061845 | 66 | 184 | 7.8 | 8.7 | 0.00 | 0.00 | 0.02 | 69 | 1024.7 |
| 20260506061345 | 65 | 187 | 7.0 | 11.3 | 0.00 | 0.00 | 0.02 | 71 | 1024.7 |
| 20260506060846 | 64 | 201 | 4.3 | 7.0 | 0.00 | 0.00 | 0.02 | 74 | 1024.7 |
| 20260506060345 | 64 | 169 | 4.3 | 6.1 | 0.00 | 0.00 | 0.02 | 73 | 1024.7 |
| 20260506051345 | 67 | 175 | 6.1 | 7.8 | 0.00 | 0.00 | 0.02 | 70 | 1024.4 |
| 20260506050846 | 67 | 187 | 4.3 | 8.7 | 0.00 | 0.00 | 0.02 | 71 | 1024.4 |
| 20260506050346 | 67 | 169 | 3.5 | 8.7 | 0.00 | 0.00 | 0.02 | 72 | 1024.4 |
| 20260506044845 | 66 | 243 | 5.2 | 8.7 | 0.00 | 0.00 | 0.02 | 72 | 1024.4 |
| 20260506044346 | 67 | 144 | 7.0 | 7.8 | 0.00 | 0.00 | 0.02 | 70 | 1024.4 |
| 20260506043845 | 66 | 215 | 5.2 | 7.8 | 0.00 | 0.00 | 0.02 | 71 | 1024.4 |
| 20260506043346 | 66 | 168 | 6.1 | 8.7 | 0.00 | 0.00 | 0.02 | 70 | 1024.4 |
| 20260506042846 | 66 | 184 | 6.1 | 7.8 | 0.00 | 0.00 | 0.02 | 71 | 1024.4 |
| 20260506042345 | 66 | 195 | 5.2 | 7.8 | 0.00 | 0.00 | 0.02 | 69 | 1024.4 |
| 20260506041845 | 66 | 182 | 5.2 | 9.6 | 0.00 | 0.00 | 0.02 | 69 | 1024.4 |
| 20260506041345 | 66 | 161 | 5.2 | 9.6 | 0.00 | 0.00 | 0.02 | 68 | 1024.4 |
| 20260506040418 | 65 | 201 | 4.3 | 7.0 | 0.00 | 0.00 | 0.02 | 72 | 1024.4 |
| 20260506035845 | 66 | 162 | 7.0 | 8.7 | 0.00 | 0.00 | 0.02 | 70 | 1024.4 |
| 20260506035346 | 66 | 213 | 5.2 | 7.8 | 0.00 | 0.00 | 0.02 | 71 | 1024.4 |
| 20260506034846 | 65 | 238 | 6.1 | 8.7 | 0.00 | 0.00 | 0.02 | 72 | 1024.4 |
| 20260506034345 | 64 | 207 | 7.0 | 11.3 | 0.00 | 0.00 | 0.02 | 75 | 1024.4 |
| 20260506033846 | 63 | 164 | 6.1 | 9.6 | 0.00 | 0.00 | 0.02 | 78 | 1024.7 |
| 20260506033346 | 63 | 192 | 5.2 | 11.3 | 0.00 | 0.00 | 0.02 | 81 | 1024.7 |
| 20260506032846 | 64 | 213 | 7.8 | 9.6 | 0.00 | 0.00 | 0.02 | 80 | 1024.4 |
| 20260506032346 | 65 | 169 | 5.2 | 13.0 | 0.00 | 0.00 | 0.02 | 77 | 1024.7 |
| 20260506031846 | 65 | 195 | 6.1 | 7.8 | 0.00 | 0.00 | 0.02 | 73 | 1024.7 |
| 20260506031345 | 65 | 206 | 8.7 | 9.6 | 0.00 | 0.00 | 0.02 | 71 | 1024.7 |
| 20260506030845 | 65 | 165 | 4.3 | 7.0 | 0.00 | 0.00 | 0.02 | 76 | 1025.1 |
| 20260506030346 | 65 | 181 | 6.1 | 8.7 | 0.00 | 0.00 | 0.02 | 74 | 1025.1 |
| 20260506025845 | 65 | 186 | 7.0 | 8.7 | 0.00 | 0.00 | 0.02 | 75 | 1025.1 |
| 20260506025345 | 65 | 165 | 4.3 | 9.6 | 0.00 | 0.00 | 0.02 | 75 | 1025.1 |
| 20260506024845 | 66 | 207 | 7.0 | 8.7 | 0.02 | 0.00 | 0.02 | 74 | 1025.1 |
| 20260506024346 | 65 | 202 | 7.8 | 11.3 | 0.02 | 0.00 | 0.02 | 73 | 1025.1 |
| 20260506023845 | 65 | 223 | 4.3 | 11.3 | 0.02 | 0.00 | 0.02 | 75 | 1025.4 |
| 20260506023345 | 65 | 179 | 7.0 | 12.2 | 0.02 | 0.00 | 0.02 | 74 | 1025.1 |
| 20260506022845 | 64 | 225 | 8.7 | 12.2 | 0.02 | 0.00 | 0.02 | 78 | 1025.1 |
| 20260506022346 | 63 | 241 | 6.1 | 9.6 | 0.02 | 0.00 | 0.02 | 79 | 1025.1 |
| 20260506021845 | 64 | 206 | 6.1 | 12.2 | 0.02 | 0.00 | 0.02 | 80 | 1025.1 |
| 20260506021345 | 63 | 234 | 6.1 | 8.7 | 0.02 | 0.00 | 0.02 | 82 | 1025.4 |
| 20260506020845 | 64 | 248 | 10.4 | 13.0 | 0.02 | 0.00 | 0.02 | 80 | 1025.4 |
| 20260506020345 | 63 | 206 | 4.3 | 9.6 | 0.02 | 0.00 | 0.02 | 84 | 1025.4 |
| 20260506015845 | 64 | 204 | 6.1 | 11.3 | 0.02 | 0.00 | 0.02 | 85 | 1025.4 |
| 20260506015345 | 63 | 237 | 5.2 | 7.8 | 0.01 | 0.00 | 0.02 | 84 | 1025.4 |
| 20260506014845 | 65 | 180 | 5.2 | 6.1 | 0.00 | 0.00 | 0.02 | 80 | 1025.4 |
| 20260506014345 | 66 | 258 | 2.6 | 6.1 | 0.00 | 0.00 | 0.00 | 74 | 1025.4 |
| 20260506013848 | 66 | 294 | 1.7 | 4.3 | 0.00 | 0.00 | 0.00 | 75 | 1025.1 |
| 20260506013345 | 66 | 200 | 3.5 | 6.1 | 0.00 | 0.00 | 0.00 | 73 | 1025.1 |
| 20260506012845 | 67 | 217 | 4.3 | 6.1 | 0.00 | 0.00 | 0.00 | 71 | 1025.4 |
| 20260506012345 | 69 | 273 | 3.5 | 5.2 | 0.00 | 0.00 | 0.00 | 68 | 1025.4 |
| 20260506011845 | 68 | 209 | 2.6 | 7.0 | 0.00 | 0.00 | 0.00 | 68 | 1025.1 |
| 20260506011353 | 68 | 319 | 2.6 | 5.2 | 0.00 | 0.00 | 0.00 | 68 | 1025.4 |
| 20260506010845 | 68 | 268 | 3.5 | 4.3 | 0.00 | 0.00 | 0.00 | 66 | 1025.1 |
| 20260506010345 | 68 | 243 | 1.7 | 2.6 | 0.00 | 0.00 | 0.00 | 69 | 1025.1 |
| 20260506005845 | 68 | 274 | 0.9 | 4.3 | 0.00 | 0.00 | 0.00 | 68 | 1025.1 |
| 20260506005345 | 67 | 290 | 2.6 | 2.6 | 0.00 | 0.00 | 0.00 | 70 | 1025.4 |
| 20260506004845 | 66 | 257 | 2.6 | 2.6 | 0.00 | 0.00 | 0.00 | 71 | 1025.1 |
| 20260506004346 | 65 | 268 | 2.6 | 2.6 | 0.00 | 0.00 | 0.00 | 73 | 1025.1 |
| 20260506003846 | 64 | 322 | 1.7 | 4.3 | 0.00 | 0.00 | 0.00 | 75 | 1025.1 |
| 20260506003345 | 64 | 315 | 2.6 | 2.6 | 0.00 | 0.00 | 0.00 | 74 | 1025.1 |
| 20260506002845 | 64 | 286 | 1.7 | 2.6 | 0.00 | 0.00 | 0.00 | 72 | 1025.4 |
| 20260506002345 | 64 | 273 | 1.7 | 2.6 | 0.00 | 0.00 | 0.00 | 73 | 1025.4 |
| 20260506001845 | 63 | 268 | 1.7 | 1.7 | 0.00 | 0.00 | 0.00 | 74 | 1025.4 |
| 20260506001345 | 62 | 245 | 0.9 | 1.7 | 0.00 | 0.00 | 0.00 | 76 | 1025.1 |
| 20260506000846 | 62 | 278 | 0.9 | 2.6 | 0.00 | 0.00 | 0.00 | 81 | 1025.4 |
| 20260506000346 | 62 | 269 | 2.6 | 5.2 | 0.00 | 0.00 | 0.00 | 81 | 1025.4 |
| 20260505235845 | 62 | 239 | 1.7 | 4.3 | 0.00 | 0.00 | 0.00 | 80 | 1025.4 |
| 20260505235345 | 64 | 220 | 3.5 | 7.0 | 0.00 | 0.00 | 0.00 | 77 | 1025.4 |
| 20260505234845 | 65 | 262 | 2.6 | 4.3 | 0.00 | 0.00 | 0.00 | 74 | 1025.1 |
| 20260505234345 | 64 | 226 | 1.7 | 2.6 | 0.00 | 0.00 | 0.00 | 77 | 1025.1 |
| 20260505233845 | 64 | 230 | 1.7 | 1.7 | 0.00 | 0.00 | 0.00 | 79 | 1025.4 |
| 20260505233346 | 64 | 292 | 1.7 | 2.6 | 0.00 | 0.00 | 0.00 | 77 | 1025.1 |
| 20260505232845 | 64 | 244 | 0.9 | 0.9 | 0.00 | 0.00 | 0.00 | 78 | 1025.1 |
| 20260505232345 | 64 | 225 | 1.7 | 1.7 | 0.00 | 0.00 | 0.00 | 78 | 1025.1 |
| 20260505231845 | 63 | 316 | 0.9 | 1.7 | 0.00 | 0.00 | 0.00 | 79 | 1025.1 |
| 20260505231345 | 63 | 321 | 1.7 | 2.6 | 0.00 | 0.00 | 0.00 | 79 | 1024.7 |
| 20260505230846 | 62 | 359 | 0.0 | 1.7 | 0.00 | 0.00 | 0.00 | 81 | 1024.7 |
| 20260505230346 | 62 | 11 | 0.9 | 0.9 | 0.00 | 0.00 | 0.00 | 84 | 1024.7 |
| 20260505225845 | 60 | 11 | 0.0 | 0.9 | 0.00 | 0.00 | 0.00 | 88 | 1024.7 |
| 20260505225347 | 59 | 11 | 0.0 | 0.9 | 0.00 | 0.00 | 0.00 | 90 | 1024.7 |
| 20260505224846 | 57 | 13 | 0.9 | 0.9 | 0.00 | 0.00 | 0.00 | 93 | 1024.7 |
| 20260505224346 | 56 | 4 | 0.0 | 0.9 | 0.00 | 0.00 | 0.00 | 93 | 1024.7 |
| 20260505223845 | 55 | 5 | 0.9 | 0.9 | 0.00 | 0.00 | 0.00 | 93 | 1024.4 |
| 20260505223346 | 54 | 6 | 0.0 | 0.0 | 0.00 | 0.00 | 0.00 | 93 | 1024.7 |
| 20260505222845 | 55 | 6 | 0.9 | 0.0 | 0.00 | 0.00 | 0.00 | 92 | 1024.4 |
| 20260505222346 | 55 | 6 | 0.0 | 0.0 | 0.00 | 0.00 | 0.00 | 92 | 1024.4 |
| 20260505221848 | 55 | 6 | 0.0 | 0.0 | 0.00 | 0.00 | 0.00 | 93 | 1024.7 |
| 20260505221345 | 55 | 7 | 0.9 | 0.9 | 0.00 | 0.00 | 0.00 | 93 | 1024.4 |
| 20260505220846 | 54 | 16 | 0.0 | 0.0 | 0.00 | 0.00 | 0.00 | 93 | 1024.4 |
| 20260505220345 | 53 | 16 | 0.0 | 0.0 | 0.00 | 0.00 | 0.00 | 92 | 1024.4 |
| 20260505215845 | 53 | 16 | 0.0 | 0.9 | 0.00 | 0.00 | 0.00 | 92 | 1024.4 |
| 20260505215351 | 54 | 17 | 0.0 | 0.0 | 0.00 | 0.00 | 0.00 | 92 | 1024.4 |
| 20260505214845 | 54 | 33 | 0.9 | 0.9 | 0.00 | 0.00 | 0.00 | 92 | 1024.4 |
| 20260505214345 | 54 | 33 | 0.0 | 0.0 | 0.00 | 0.00 | 0.00 | 92 | 1024.0 |
| 20260505213846 | 55 | 33 | 0.0 | 0.0 | 0.00 | 0.00 | 0.00 | 92 | 1024.0 |
| 20260505213346 | 55 | 33 | 0.0 | 0.0 | 0.00 | 0.00 | 0.00 | 92 | 1024.0 |
| 20260505212845 | 55 | 33 | 0.0 | 0.0 | 0.00 | 0.00 | 0.00 | 92 | 1024.0 |
| 20260505212346 | 55 | 33 | 0.0 | 0.0 | 0.00 | 0.00 | 0.00 | 92 | 1024.0 |
| 20260505211845 | 55 | 33 | 0.0 | 0.0 | 0.00 | 0.00 | 0.00 | 92 | 1024.0 |
| 20260505211345 | 55 | 34 | 0.0 | 0.0 | 0.00 | 0.00 | 0.00 | 91 | 1024.0 |
| 20260505210846 | 55 | 34 | 0.0 | 0.0 | 0.00 | 0.00 | 0.00 | 91 | 1023.7 |
| 20260505210345 | 56 | 340 | 0.0 | 0.0 | 0.00 | 0.00 | 0.00 | 91 | 1024.0 |
| 20260505205845 | 56 | 340 | 0.0 | 0.0 | 0.00 | 0.00 | 0.00 | 91 | 1024.0 |
| 20260505205345 | 56 | 340 | 0.0 | 0.0 | 0.00 | 0.00 | 0.00 | 91 | 1024.0 |
| 20260505204845 | 56 | 340 | 0.0 | 0.0 | 0.00 | 0.00 | 0.00 | 91 | 1024.0 |
| 20260505204345 | 57 | 340 | 0.9 | 0.9 | 0.00 | 0.00 | 0.00 | 91 | 1023.7 |
| 20260505203845 | 57 | 341 | 0.9 | 0.9 | 0.00 | 0.00 | 0.00 | 91 | 1023.7 |
| 20260505203347 | 57 | 276 | 0.0 | 0.0 | 0.00 | 0.00 | 0.00 | 92 | 1023.7 |
| 20260505202846 | 57 | 276 | 0.0 | 0.0 | 0.00 | 0.00 | 0.00 | 92 | 1023.7 |
| 20260505202345 | 57 | 276 | 0.0 | 0.0 | 0.00 | 0.00 | 0.00 | 92 | 1023.7 |
| 20260505201848 | 57 | 275 | 0.0 | 1.7 | 0.00 | 0.00 | 0.00 | 93 | 1023.7 |
| 20260505201346 | 57 | 303 | 0.0 | 0.0 | 0.00 | 0.00 | 0.00 | 93 | 1023.7 |
| 20260505200845 | 56 | 303 | 0.9 | 1.7 | 0.00 | 0.00 | 0.00 | 93 | 1023.7 |
| 20260505200346 | 56 | 272 | 0.0 | 0.0 | 0.00 | 0.00 | 0.00 | 93 | 1023.7 |
| 20260505195846 | 55 | 271 | 0.0 | 1.7 | 0.00 | 0.00 | 0.00 | 93 | 1023.7 |
| 20260505195345 | 55 | 283 | 0.9 | 0.9 | 0.00 | 0.00 | 0.00 | 93 | 1023.7 |
| 20260505194846 | 54 | 283 | 0.0 | 0.0 | 0.00 | 0.00 | 0.00 | 93 | 1024.0 |
| 20260505194345 | 54 | 282 | 0.0 | 0.9 | 0.00 | 0.00 | 0.00 | 93 | 1023.7 |
| 20260505193846 | 54 | 283 | 0.0 | 0.0 | 0.00 | 0.00 | 0.00 | 93 | 1023.7 |
| 20260505193346 | 54 | 282 | 0.0 | 0.0 | 0.00 | 0.00 | 0.00 | 93 | 1023.7 |
| 20260505192847 | 53 | 282 | 0.0 | 0.0 | 0.00 | 0.00 | 0.00 | 93 | 1023.7 |
| 20260505192346 | 53 | 282 | 0.0 | 0.0 | 0.00 | 0.00 | 0.00 | 92 | 1023.7 |
| 20260505191846 | 53 | 282 | 0.0 | 0.0 | 0.00 | 0.00 | 0.00 | 92 | 1023.7 |
| 20260505191346 | 53 | 282 | 0.0 | 0.0 | 0.00 | 0.00 | 0.00 | 93 | 1023.4 |
| 20260505190847 | 52 | 282 | 0.0 | 0.9 | 0.00 | 0.00 | 0.00 | 93 | 1023.7 |
| 20260505190347 | 52 | 282 | 0.0 | 0.0 | 0.00 | 0.00 | 0.00 | 92 | 1023.4 |
| 20260505185845 | 52 | 283 | 0.0 | 0.0 | 0.00 | 0.00 | 0.00 | 92 | 1023.4 |
| 20260505185346 | 51 | 283 | 0.0 | 0.0 | 0.00 | 0.00 | 0.00 | 91 | 1023.4 |
| 20260505184845 | 52 | 282 | 0.0 | 0.0 | 0.00 | 0.00 | 0.00 | 91 | 1023.4 |
| 20260505184345 | 52 | 282 | 0.0 | 0.0 | 0.00 | 0.00 | 0.00 | 91 | 1023.4 |
| 20260505183846 | 52 | 283 | 0.0 | 0.0 | 0.00 | 0.00 | 0.00 | 91 | 1023.4 |
| 20260505183345 | 53 | 283 | 0.0 | 0.0 | 0.00 | 0.00 | 0.00 | 90 | 1023.4 |
| 20260505182847 | 53 | 282 | 0.0 | 0.0 | 0.00 | 0.00 | 0.00 | 90 | 1023.7 |
| 20260505182345 | 53 | 282 | 0.0 | 0.0 | 0.00 | 0.00 | 0.00 | 90 | 1023.4 |
| 20260505181846 | 53 | 282 | 0.0 | 0.9 | 0.00 | 0.00 | 0.00 | 90 | 1023.4 |
| 20260505181348 | 54 | 283 | 0.0 | 0.9 | 0.00 | 0.00 | 0.00 | 90 | 1023.4 |
| 20260505180846 | 54 | 282 | 0.0 | 0.9 | 0.00 | 0.00 | 0.00 | 89 | 1023.7 |
| 20260505180345 | 54 | 290 | 0.0 | 0.0 | 0.00 | 0.00 | 0.00 | 89 | 1023.7 |
| 20260505175845 | 55 | 290 | 0.0 | 0.0 | 0.00 | 0.00 | 0.00 | 88 | 1023.7 |
| 20260505175345 | 55 | 291 | 0.0 | 0.0 | 0.00 | 0.00 | 0.00 | 88 | 1023.7 |
| 20260505174845 | 56 | 291 | 0.0 | 0.9 | 0.00 | 0.00 | 0.00 | 87 | 1023.7 |
| 20260505174345 | 57 | 290 | 0.0 | 0.9 | 0.00 | 0.00 | 0.00 | 87 | 1023.7 |
| 20260505173845 | 57 | 299 | 0.9 | 1.7 | 0.00 | 0.00 | 0.00 | 87 | 1023.7 |
| 20260505173345 | 57 | 264 | 0.9 | 0.9 | 0.00 | 0.00 | 0.00 | 86 | 1023.7 |
| 20260505172847 | 57 | 264 | 0.9 | 0.9 | 0.00 | 0.00 | 0.00 | 86 | 1023.7 |
| 20260505172345 | 58 | 264 | 0.0 | 0.0 | 0.00 | 0.00 | 0.00 | 86 | 1023.7 |
| 20260505171845 | 58 | 264 | 0.0 | 0.9 | 0.00 | 0.00 | 0.00 | 85 | 1023.7 |
| 20260505171346 | 58 | 264 | 0.0 | 0.0 | 0.00 | 0.00 | 0.00 | 85 | 1023.7 |
| 20260505170846 | 58 | 266 | 0.9 | 0.9 | 0.00 | 0.00 | 0.00 | 85 | 1024.0 |
| 20260505170345 | 58 | 273 | 0.9 | 0.9 | 0.00 | 0.00 | 0.00 | 84 | 1024.0 |
| 20260505165845 | 58 | 274 | 0.9 | 1.7 | 0.00 | 0.00 | 0.00 | 84 | 1024.0 |
| 20260505165345 | 58 | 267 | 1.7 | 4.3 | 0.00 | 0.00 | 0.00 | 85 | 1024.0 |
| 20260505164845 | 58 | 287 | 4.3 | 5.2 | 0.00 | 0.00 | 0.00 | 86 | 1024.4 |
| 20260505164346 | 58 | 263 | 2.6 | 4.3 | 0.00 | 0.00 | 0.00 | 87 | 1024.0 |
| 20260505163846 | 59 | 274 | 1.7 | 4.3 | 0.00 | 0.00 | 0.00 | 88 | 1024.0 |
| 20260505163346 | 59 | 278 | 1.7 | 5.2 | 0.00 | 0.00 | 0.00 | 88 | 1024.0 |
| 20260505162845 | 59 | 259 | 1.7 | 4.3 | 0.00 | 0.00 | 0.00 | 88 | 1024.0 |
| 20260505162345 | 58 | 269 | 2.6 | 2.6 | 0.00 | 0.00 | 0.00 | 87 | 1024.0 |
| 20260505161845 | 58 | 267 | 1.7 | 1.7 | 0.00 | 0.00 | 0.00 | 87 | 1024.4 |
| 20260505161347 | 58 | 305 | 0.0 | 0.0 | 0.00 | 0.00 | 0.00 | 87 | 1024.4 |
| 20260505160846 | 58 | 305 | 0.0 | 0.0 | 0.00 | 0.00 | 0.00 | 87 | 1024.4 |
| 20260505160346 | 57 | 305 | 0.0 | 0.0 | 0.00 | 0.00 | 0.00 | 87 | 1024.0 |